CW5689 Weather Reports


Display with metric or nautical units.
time (UTC)temp
F
wind
direction
speed
MPH
gust
MPH
rain 1hr
in
rain 24hr
in
rain mn
in
humidity
%
barometer
mb
20260901163039 84 71 3.0 5.0 0.00 0.00 0.00 63 1014.0
20260901162517 84 67 3.0 5.0 0.00 0.00 0.00 64 1013.9
20260901162023 84 71 3.0 5.0 0.00 0.00 0.00 64 1014.0
20260901161546 84 78 2.0 5.0 0.00 0.00 0.00 67 1013.9
20260901161019 84 0 0.0 4.0 0.00 0.00 0.00 66 1013.9
20260901160521 83 63 1.0 4.0 0.00 0.00 0.00 63 1014.0
20260901160042 83 63 1.0 3.0 0.00 0.00 0.00 71 1014.0
20260901155518 82 0 0.0 7.0 0.00 0.00 0.00 68 1014.0
20260901155019 82 0 0.0 7.0 0.00 0.00 0.00 73 1014.1
20260901154538 81 0 0.0 4.0 0.00 0.00 0.00 71 1014.1
20260901154020 81 0 0.0 4.0 0.00 0.00 0.00 73 1014.1
20260901153521 80 0 1.0 3.0 0.00 0.00 0.00 73 1014.1
20260901153041 80 0 0.0 3.0 0.00 0.00 0.00 77 1014.1
20260901152519 79 0 0.0 0.0 0.00 0.00 0.00 75 1014.1
20260901152028 79 0 0.0 0.0 0.00 0.00 0.00 79 1014.2
20260901151544 78 0 0.0 0.0 0.00 0.00 0.00 81 1014.2
20260901151019 78 0 0.0 0.0 0.00 0.00 0.00 81 1014.3
20260901150518 77 0 0.0 0.0 0.00 0.00 0.00 82 1014.3
20260901150040 76 0 0.0 0.0 0.00 0.00 0.00 82 1014.3
20260901145519 76 0 0.0 2.0 0.00 0.00 0.00 81 1014.3
20260901145020 75 0 0.0 4.0 0.00 0.00 0.00 84 1014.4
20260901144540 75 0 0.0 6.0 0.00 0.00 0.00 85 1014.4
20260901144019 74 253 2.0 6.0 0.00 0.00 0.00 85 1014.5
20260901143518 74 219 2.0 6.0 0.00 0.00 0.00 87 1014.5
20260901143041 73 196 1.0 4.0 0.00 0.00 0.00 89 1014.5
20260901142519 72 0 1.0 3.0 0.00 0.00 0.00 90 1014.5
20260901142024 72 195 1.0 3.0 0.00 0.00 0.00 92 1014.5
20260901141538 71 0 0.0 3.0 0.00 0.00 0.00 92 1014.5
20260901141017 70 0 0.0 4.0 0.00 0.00 0.00 93 1014.5
20260901140520 70 195 2.0 4.0 0.00 0.00 0.00 93 1014.6
20260901140043 69 186 0.0 4.0 0.00 0.00 0.00 94 1014.6
20260901135520 69 186 1.0 4.0 0.00 0.00 0.00 95 1014.7
20260901135020 69 184 0.0 6.0 0.00 0.00 0.00 95 1014.7
20260901134543 68 186 2.0 6.0 0.00 0.00 0.00 95 1014.8
20260901134019 68 240 2.0 4.0 0.00 0.00 0.00 95 1014.7
20260901133519 67 0 0.0 0.0 0.00 0.00 0.00 95 1014.8
20260901133038 67 0 0.0 0.0 0.00 0.00 0.00 95 1014.7
20260901132521 66 0 0.0 0.0 0.00 0.00 0.00 95 1014.7
20260901132018 66 0 0.0 0.0 0.00 0.00 0.00 95 1014.7
20260901131542 65 0 0.0 0.0 0.00 0.00 0.00 94 1014.7
20260901131018 65 0 0.0 0.0 0.00 0.00 0.00 94 1014.5
20260901130519 65 0 0.0 1.0 0.00 0.00 0.00 94 1014.6
20260901130042 64 0 0.0 2.0 0.00 0.00 0.00 94 1014.5
20260901125520 64 0 0.0 2.0 0.00 0.00 0.00 94 1014.6
20260901125020 64 274 0.0 2.0 0.00 0.00 0.00 94 1014.5
20260901124541 64 0 0.0 2.0 0.00 0.00 0.00 93 1014.6
20260901124019 64 274 0.0 2.0 0.00 0.00 0.00 93 1014.5
20260901123518 64 0 0.0 2.0 0.00 0.00 0.00 93 1014.4
20260901123040 64 0 0.0 2.0 0.00 0.00 0.00 93 1014.4
20260901122520 63 274 0.0 2.0 0.00 0.00 0.00 93 1014.4
20260901122023 63 274 0.0 2.0 0.00 0.00 0.00 93 1014.3
20260901121556 63 274 0.0 3.0 0.00 0.00 0.00 94 1014.3
20260901121019 63 274 0.0 3.0 0.00 0.00 0.00 94 1014.3
20260901120521 63 274 2.0 4.0 0.00 0.00 0.00 94 1014.2
20260901120040 63 258 1.0 4.0 0.00 0.00 0.00 93 1014.1
20260901115523 63 240 0.0 2.0 0.00 0.00 0.00 93 1014.1
20260901115020 63 0 0.0 2.0 0.00 0.00 0.00 93 1013.8
20260901114540 63 0 0.0 3.0 0.00 0.00 0.00 93 1013.7
20260901114017 63 207 1.0 3.0 0.00 0.00 0.00 93 1013.7
20260901113517 63 206 1.0 3.0 0.00 0.00 0.00 93 1013.7
20260901113041 63 206 1.0 2.0 0.00 0.00 0.00 93 1013.6
20260901112519 63 0 0.0 2.0 0.00 0.00 0.00 93 1013.7
20260901112021 62 0 0.0 2.0 0.00 0.00 0.00 92 1013.6
20260901111541 63 206 0.0 2.0 0.00 0.00 0.00 92 1013.6
20260901111023 63 0 0.0 2.0 0.00 0.00 0.00 92 1013.6
20260901110521 63 206 0.0 2.0 0.00 0.00 0.00 92 1013.5
20260901110041 63 0 0.0 2.0 0.00 0.00 0.00 92 1013.4
20260901105520 63 206 1.0 2.0 0.00 0.00 0.00 92 1013.4
20260901105018 63 206 0.0 2.0 0.00 0.00 0.00 93 1013.4
20260901104555 63 0 0.0 3.0 0.00 0.00 0.00 93 1013.3
20260901104019 63 206 1.0 3.0 0.00 0.00 0.00 93 1013.2
20260901103527 63 206 0.0 2.0 0.00 0.00 0.00 93 1013.2
20260901103042 63 206 0.0 3.0 0.00 0.00 0.00 93 1013.1
20260901102521 63 0 0.0 4.0 0.00 0.00 0.00 92 1013.2
20260901102020 63 206 1.0 4.0 0.00 0.00 0.00 93 1013.2
20260901101546 63 205 1.0 4.0 0.00 0.00 0.00 92 1013.4
20260901101023 63 0 0.0 2.0 0.00 0.00 0.00 92 1013.3
20260901100521 63 0 0.0 3.0 0.00 0.00 0.00 92 1013.3
20260901100055 63 205 1.0 4.0 0.00 0.00 0.00 92 1013.2
20260901095518 63 0 1.0 4.0 0.00 0.00 0.00 92 1013.1
20260901095020 63 226 1.0 3.0 0.00 0.00 0.00 92 1013.1
20260901094539 63 229 1.0 3.0 0.00 0.00 0.00 92 1013.1
20260901094020 63 229 1.0 3.0 0.00 0.00 0.00 92 1013.1
20260901093523 63 229 1.0 3.0 0.00 0.00 0.00 92 1013.2
20260901093045 63 229 1.0 3.0 0.00 0.00 0.00 92 1013.1
20260901092522 63 229 1.0 3.0 0.00 0.00 0.00 92 1013.0
20260901092021 63 229 0.0 3.0 0.00 0.00 0.00 92 1013.0
20260901091539 63 229 1.0 3.0 0.00 0.00 0.00 92 1013.1
20260901091020 63 230 1.0 3.0 0.00 0.00 0.00 91 1012.9
20260901090524 63 230 1.0 3.0 0.00 0.00 0.00 91 1013.0
20260901090041 63 230 1.0 3.0 0.00 0.00 0.00 91 1013.1
20260901085519 63 230 1.0 2.0 0.00 0.00 0.00 91 1013.1
20260901085019 63 230 0.0 3.0 0.00 0.00 0.00 91 1013.1
20260901084539 63 230 1.0 3.0 0.00 0.00 0.00 91 1013.2
20260901084020 64 230 1.0 2.0 0.00 0.00 0.00 91 1013.0
20260901083526 64 230 1.0 2.0 0.00 0.00 0.00 91 1013.0
20260901083038 64 230 1.0 2.0 0.00 0.00 0.00 92 1013.1
20260901082520 64 230 1.0 2.0 0.00 0.00 0.00 92 1013.0
20260901082021 64 230 1.0 2.0 0.00 0.00 0.00 92 1013.0
20260901081537 64 230 0.0 3.0 0.00 0.00 0.00 91 1013.0
20260901081020 64 230 1.0 3.0 0.00 0.00 0.00 91 1013.0
20260901080519 64 230 1.0 3.0 0.00 0.00 0.00 91 1013.1
20260901080039 64 230 1.0 3.0 0.00 0.00 0.00 91 1013.1
20260901075520 64 230 1.0 3.0 0.00 0.00 0.00 91 1013.2
20260901075020 64 230 1.0 2.0 0.00 0.00 0.00 91 1013.1
20260901074539 64 230 0.0 3.0 0.00 0.00 0.00 91 1013.2
20260901074018 64 230 1.0 3.0 0.00 0.00 0.00 91 1013.3
20260901073524 64 230 1.0 4.0 0.00 0.00 0.00 91 1013.2
20260901073046 64 230 1.0 4.0 0.00 0.00 0.00 91 1013.3
20260901072523 64 229 1.0 3.0 0.00 0.00 0.00 91 1013.4
20260901072022 64 229 1.0 3.0 0.00 0.00 0.00 91 1013.3
20260901071538 64 229 1.0 2.0 0.00 0.00 0.00 91 1013.3
20260901071019 64 229 1.0 2.0 0.00 0.00 0.00 91 1013.4
20260901070520 65 229 1.0 3.0 0.00 0.00 0.00 91 1013.4
20260901070042 65 229 1.0 3.0 0.00 0.00 0.00 91 1013.4
20260901065518 65 229 0.0 3.0 0.00 0.00 0.00 91 1013.5
20260901065020 65 0 0.0 0.0 0.00 0.00 0.00 91 1013.5
20260901064546 65 0 0.0 0.0 0.00 0.00 0.00 90 1013.6
20260901064022 65 0 0.0 0.0 0.00 0.00 0.00 90 1013.6
20260901063521 65 0 0.0 0.0 0.00 0.00 0.00 90 1013.7
20260901063042 65 0 0.0 0.0 0.00 0.00 0.00 90 1013.6
20260901062519 65 0 0.0 0.0 0.00 0.00 0.00 90 1013.6
20260901062024 65 0 0.0 0.0 0.00 0.00 0.00 90 1013.5
20260901061538 65 0 0.0 0.0 0.00 0.00 0.00 90 1013.5
20260901061019 65 0 0.0 0.0 0.00 0.00 0.00 90 1013.5
20260901060521 65 0 0.0 0.0 0.00 0.00 0.00 90 1013.6
20260901060040 65 0 0.0 0.0 0.00 0.00 0.00 90 1013.5
20260901055519 66 0 0.0 0.0 0.00 0.00 0.00 90 1013.5
20260901055017 66 0 0.0 0.0 0.00 0.00 0.00 89 1013.4
20260901054544 66 0 0.0 0.0 0.00 0.00 0.00 89 1013.4
20260901054021 66 0 0.0 0.0 0.00 0.00 0.00 89 1013.3
20260901053519 66 0 0.0 0.0 0.00 0.00 0.00 89 1013.2
20260901053038 66 0 0.0 0.0 0.00 0.00 0.00 89 1013.1
20260901052518 66 0 0.0 0.0 0.00 0.00 0.00 89 1013.0
20260901052018 67 0 0.0 0.0 0.00 0.00 0.00 89 1012.9
20260901051543 67 0 0.0 0.0 0.00 0.00 0.00 89 1012.8
20260901051021 67 0 0.0 0.0 0.00 0.00 0.00 89 1012.9
20260901050520 67 0 0.0 0.0 0.00 0.00 0.00 89 1012.8
20260901050038 67 0 0.0 0.0 0.00 0.00 0.00 89 1012.7
20260901045527 67 0 0.0 0.0 0.00 0.00 0.00 89 1012.7
20260901045019 67 0 0.0 0.0 0.00 0.00 0.00 89 1012.7
20260901044552 67 0 0.0 0.0 0.00 0.00 0.00 88 1012.6
20260901044020 67 0 0.0 0.0 0.00 0.00 0.00 88 1012.5
20260901043521 67 0 0.0 0.0 0.00 0.00 0.00 88 1012.5
20260901043040 68 0 0.0 0.0 0.00 0.00 0.00 88 1012.5
20260901042525 68 0 0.0 0.0 0.00 0.00 0.00 88 1012.7
20260901042019 68 0 0.0 0.0 0.00 0.00 0.00 88 1012.7
20260901041541 68 0 0.0 0.0 0.00 0.00 0.00 87 1012.7
20260901041020 68 0 0.0 0.0 0.00 0.00 0.00 87 1012.6
20260901040518 68 0 0.0 0.0 0.00 0.00 0.00 87 1012.7
20260901040039 68 0 0.0 0.0 0.00 0.00 0.00 87 1012.7
20260901035518 69 0 0.0 0.0 0.00 0.00 0.00 87 1012.7
20260901035018 69 0 0.0 0.0 0.00 0.00 0.00 86 1012.8
20260901034542 69 0 0.0 0.0 0.00 0.00 0.00 86 1012.9
20260901034023 69 0 0.0 0.0 0.00 0.00 0.00 86 1012.8
20260901033521 69 0 0.0 0.0 0.00 0.00 0.00 86 1012.7
20260901033037 69 0 0.0 0.0 0.00 0.00 0.00 86 1012.6
20260901032520 69 0 0.0 0.0 0.00 0.00 0.00 85 1012.6
20260901032020 70 0 0.0 0.0 0.00 0.00 0.00 85 1012.6
20260901031537 70 0 0.0 0.0 0.00 0.00 0.00 85 1012.5
20260901031019 70 0 0.0 0.0 0.00 0.00 0.00 84 1012.4
20260901030519 70 0 0.0 0.0 0.00 0.00 0.00 84 1012.4
20260901030048 70 0 0.0 0.0 0.00 0.00 0.00 84 1012.3
20260901025518 71 0 0.0 0.0 0.00 0.00 0.00 83 1012.4
20260901025022 71 0 0.0 0.0 0.00 0.00 0.00 83 1012.4
20260901024542 71 0 0.0 0.0 0.00 0.00 0.00 82 1012.3
20260901024027 71 0 0.0 0.0 0.00 0.00 0.00 82 1012.2
20260901023519 72 0 0.0 0.0 0.00 0.00 0.00 81 1012.3
20260901023044 72 0 0.0 0.0 0.00 0.00 0.00 81 1012.2
20260901022520 72 0 0.0 0.0 0.00 0.00 0.00 80 1012.1
20260901022020 73 0 0.0 0.0 0.00 0.00 0.00 79 1012.1
20260901021537 73 0 0.0 0.0 0.00 0.00 0.00 79 1012.0
20260901021018 73 0 0.0 0.0 0.00 0.00 0.00 78 1012.1
20260901020518 74 0 0.0 0.0 0.00 0.00 0.00 78 1012.0
20260901020039 74 0 0.0 0.0 0.00 0.00 0.00 76 1012.1
20260901015519 75 0 0.0 0.0 0.00 0.00 0.00 76 1011.9
20260901015018 75 0 0.0 0.0 0.00 0.00 0.00 76 1011.8
20260901014542 76 0 0.0 0.0 0.00 0.00 0.00 75 1011.8
20260901014019 76 0 0.0 0.0 0.00 0.00 0.00 75 1011.7
20260901013521 76 0 0.0 0.0 0.00 0.00 0.00 74 1011.6
20260901013040 77 0 0.0 0.0 0.00 0.00 0.00 74 1011.6
20260901012523 77 0 0.0 0.0 0.00 0.00 0.00 73 1011.5
20260901012023 78 0 0.0 0.0 0.00 0.00 0.00 72 1011.5
20260901011538 78 0 0.0 0.0 0.00 0.00 0.00 71 1011.4
20260901011019 79 0 0.0 0.0 0.00 0.00 0.00 70 1011.4
20260901010520 80 0 0.0 0.0 0.00 0.00 0.00 69 1011.3
20260901010039 80 0 0.0 0.0 0.00 0.00 0.00 68 1011.3
20260901005518 80 0 0.0 0.0 0.00 0.00 0.00 67 1011.4
20260901005020 81 0 0.0 0.0 0.00 0.00 0.00 67 1011.2
20260901004545 81 0 0.0 0.0 0.00 0.00 0.00 66 1011.2
20260901004018 82 0 0.0 0.0 0.00 0.00 0.00 64 1011.3
20260901003518 82 0 0.0 0.0 0.00 0.00 0.00 64 1011.3
20260901003042 82 0 0.0 0.0 0.00 0.00 0.00 64 1011.3
20260901002520 83 0 0.0 0.0 0.00 0.00 0.00 63 1011.3
20260901002020 83 0 0.0 0.0 0.00 0.00 0.00 63 1011.2
20260901001539 83 0 0.0 0.0 0.00 0.00 0.00 63 1011.2
20260901001018 83 0 0.0 0.0 0.00 0.00 0.00 60 1011.2
20260901000521 84 0 0.0 0.0 0.00 0.00 0.00 60 1011.2
20260901000045 84 0 0.0 0.0 0.00 0.00 0.00 59 1011.1
20260831235519 84 0 0.0 0.0 0.00 0.00 0.00 59 1011.1
20260831235019 84 0 0.0 4.0 0.00 0.00 0.00 58 1011.0
20260831234535 84 0 0.0 4.0 0.00 0.00 0.00 59 1010.9
20260831234019 85 9 1.0 4.0 0.00 0.00 0.00 59 1011.0
20260831233518 85 31 1.0 4.0 0.00 0.00 0.00 59 1011.0
20260831233039 85 20 1.0 8.0 0.00 0.00 0.00 58 1011.0
20260831232519 86 15 2.0 8.0 0.00 0.00 0.00 58 1011.0
20260831232021 86 5 1.0 7.0 0.00 0.00 0.00 58 1011.0
20260831231541 86 1 1.0 7.0 0.00 0.00 0.00 57 1011.0
20260831231020 86 12 0.0 5.0 0.00 0.00 0.00 64 1011.1
20260831230518 86 20 1.0 5.0 0.00 0.00 0.00 59 1011.0
20260831230044 86 0 0.0 0.0 0.00 0.00 0.00 61 1011.0
20260831225517 86 0 0.0 3.0 0.00 0.00 0.00 59 1010.9
20260831225021 86 0 0.0 3.0 0.00 0.00 0.00 61 1010.9
20260831224546 86 0 0.0 0.0 0.00 0.00 0.00 61 1010.8
20260831224018 86 0 0.0 3.0 0.00 0.00 0.00 61 1010.8
20260831223520 86 0 0.0 4.0 0.00 0.00 0.00 62 1010.7
20260831223039 86 26 0.0 6.0 0.00 0.00 0.00 60 1010.7
20260831222520 86 5 2.0 6.0 0.00 0.00 0.00 61 1010.7
20260831222020 86 0 1.0 4.0 0.00 0.00 0.00 60 1010.6
20260831221541 86 0 0.0 2.0 0.00 0.00 0.00 61 1010.7
20260831221019 86 0 0.0 3.0 0.00 0.00 0.00 60 1010.7
20260831220518 86 19 0.0 7.0 0.00 0.00 0.00 57 1010.6
20260831220037 86 330 1.0 9.0 0.00 0.00 0.00 54 1010.7
20260831215521 86 355 3.0 9.0 0.00 0.00 0.00 57 1010.7
20260831215022 86 0 1.0 8.0 0.00 0.00 0.00 55 1010.6
20260831214600 86 21 1.0 4.0 0.00 0.00 0.00 57 1010.6
20260831214021 86 0 2.0 4.0 0.00 0.00 0.00 57 1010.6
20260831213518 86 21 0.0 6.0 0.00 0.00 0.00 54 1010.5
20260831213041 86 0 2.0 8.0 0.00 0.00 0.00 54 1010.4
20260831212519 86 326 2.0 9.0 0.00 0.00 0.00 54 1010.4
20260831212019 86 0 3.0 9.0 0.00 0.00 0.00 53 1010.3
20260831211540 86 294 2.0 7.0 0.00 0.00 0.00 59 1010.4
20260831211018 86 22 2.0 7.0 0.00 0.00 0.00 59 1010.3
20260831210522 86 36 3.0 7.0 0.00 0.00 0.00 58 1010.3
20260831210042 86 292 3.0 7.0 0.00 0.00 0.00 58 1010.4
20260831205521 86 286 2.0 9.0 0.00 0.00 0.00 61 1010.6
20260831205021 85 234 2.0 9.0 0.00 0.00 0.00 59 1010.5
20260831204538 85 280 4.0 9.0 0.00 0.00 0.00 59 1010.4
20260831204020 85 13 2.0 6.0 0.00 0.00 0.00 58 1010.4
20260831203518 85 7 1.0 10.0 0.00 0.00 0.00 65 1010.4
20260831203039 85 280 2.0 10.0 0.00 0.00 0.00 59 1010.4
20260831202523 85 232 0.0 7.0 0.00 0.00 0.00 62 1010.4
20260831202022 85 0 0.0 7.0 0.00 0.00 0.00 68 1010.4
20260831201540 85 0 1.0 7.0 0.00 0.00 0.00 69 1010.3
20260831201020 85 63 2.0 5.0 0.00 0.00 0.00 69 1010.4
20260831200519 85 45 2.0 8.0 0.00 0.00 0.00 71 1010.3
20260831200042 85 0 0.0 8.0 0.00 0.00 0.00 72 1010.3
20260831195521 85 342 2.0 7.0 0.00 0.00 0.00 69 1010.3
20260831195017 85 70 4.0 7.0 0.00 0.00 0.00 71 1010.3
20260831194545 86 75 2.0 5.0 0.00 0.00 0.00 70 1010.3
20260831194019 86 71 2.0 5.0 0.00 0.00 0.00 70 1010.4
20260831193519 86 66 1.0 6.0 0.00 0.00 0.00 73 1010.6
20260831193042 86 75 2.0 7.0 0.00 0.00 0.00 71 1010.3
20260831192520 87 74 3.0 7.0 0.00 0.00 0.00 70 1010.2
20260831192023 87 78 3.0 7.0 0.00 0.00 0.00 70 1010.2
20260831191537 87 66 1.0 5.0 0.00 0.00 0.00 70 1010.2
20260831191018 87 0 0.0 6.0 0.00 0.00 0.00 71 1010.2
20260831190520 88 65 2.0 6.0 0.00 0.00 0.00 70 1010.2
20260831190059 88 68 3.0 6.0 0.00 0.00 0.00 71 1010.1
20260831185521 88 76 2.0 4.0 0.00 0.00 0.00 72 1010.2
20260831185022 88 71 1.0 6.0 0.00 0.00 0.00 73 1010.1
20260831184544 88 72 3.0 6.0 0.00 0.00 0.00 73 1010.1
20260831184021 88 71 2.0 5.0 0.00 0.00 0.00 74 1010.1
20260831183524 88 69 2.0 5.0 0.00 0.00 0.00 74 1010.2
20260831183053 88 71 3.0 6.0 0.00 0.00 0.00 74 1010.2
20260831182522 87 67 3.0 6.0 0.00 0.00 0.00 76 1010.3
20260831182019 87 65 2.0 7.0 0.00 0.00 0.00 78 1010.3
20260831181538 87 68 4.0 7.0 0.00 0.00 0.00 75 1010.3
20260831181018 86 64 1.0 4.0 0.00 0.00 0.00 78 1010.4
20260831180517 86 0 0.0 4.0 0.00 0.00 0.00 77 1010.4
20260831180039 86 0 0.0 4.0 0.00 0.00 0.00 77 1010.3
20260831175526 86 66 1.0 4.0 0.00 0.00 0.00 78 1010.4
20260831175019 85 67 1.0 4.0 0.00 0.00 0.00 79 1010.4
20260831174539 85 72 1.0 3.0 0.00 0.00 0.00 78 1010.7
20260831174021 85 72 1.0 4.0 0.00 0.00 0.00 78 1010.6
20260831173520 85 72 1.0 4.0 0.00 0.00 0.00 77 1010.6
20260831173040 85 64 2.0 4.0 0.00 0.00 0.00 77 1010.7
20260831172517 85 59 2.0 4.0 0.00 0.00 0.00 77 1010.6
20260831172018 85 31 1.0 4.0 0.00 0.00 0.00 77 1010.6
20260831171542 85 292 1.0 8.0 0.00 0.00 0.00 78 1010.7
20260831171019 85 22 1.0 8.0 0.00 0.00 0.00 77 1010.7
20260831170519 85 305 2.0 8.0 0.00 0.00 0.00 77 1010.8
20260831170043 85 47 1.0 6.0 0.00 0.00 0.00 77 1010.6
20260831165521 84 360 2.0 7.0 0.00 0.00 0.00 78 1010.6
20260831165024 84 19 2.0 7.0 0.00 0.00 0.00 78 1010.5
20260831164546 84 24 0.0 5.0 0.00 0.00 0.00 81 1010.4
20260831164022 84 33 2.0 5.0 0.00 0.00 0.00 78 1010.4
20260831163521 84 30 2.0 4.0 0.00 0.00 0.00 78 1010.4